Weather History for CWNB - March, 2013

Change the Weather History Date:

Sunday, March 10, 2013

  Actual Average Record
Temperature  
Mean Temperature 50 °F -  
Max Temperature 62 °F - - ()
Min Temperature 38 °F - - ()
Degree Days  
Heating Degree Days 15    
Moisture  
Dew Point 33 °F    
Average Humidity 56    
Maximum Humidity 79    
Minimum Humidity 22    
Precipitation  
Precipitation 0.00 in - - ()
Sea Level Pressure  
Sea Level Pressure 29.95 in    
Wind  
Wind Speed - ()    
Max Wind Speed -    
Max Gust Speed -    
T = Trace of Precipitation, MM = Missing Value Source: Averaged Metar Reports

Daily Weather History Graph

Daily Weather History Graph

Search for Another Location

Airport or City:

Trip Planner

Search our weather history database for the weather conditions in past years. The results will help you decide how hot, cold, wet, or windy it might be!

Date:

Astronomy

Mar. 10, 2013 Rise Set
Actual Time 7:49 AM EDT 7:31 PM EDT
Civil Twilight 7:21 AM EDT 7:58 PM EDT
Nautical Twilight 6:49 AM EDT 8:31 PM EDT
Astronomical Twilight 6:17 AM EDT 9:03 PM EDT
Moon 6:49 AM EDT (3/10) 6:37 PM EDT (3/10)
Length of Visible Light 12h 36m
Length of Day
11h 41m
Waning Crescent, 2% of the Moon is Illuminated
Mar 10
Waning Crescent
Mar 11
New
Mar 19
First Quarter
Mar 27
Full
Apr 3
Last Quarter

Hourly Weather History & Observations

Time (EDT) Temp. Dew Point Humidity Pressure Visibility Wind Dir Wind Speed Gust Speed Precip Events Conditions
12:00 AM 38.1 °F 32.0 °F 79% 30.06 in - North - - N/A   Unknown
1:00 AM 41 °F 31 °F 58% 30.04 in - Calm Calm - -  
1:00 AM 41.4 °F 31.3 °F 67% 30.04 in - North - - N/A   Unknown
3:00 AM 41.7 °F 31.1 °F 66% 30.03 in - North - - N/A   Unknown
4:00 AM 43.0 °F 30.7 °F 62% 30.00 in - North - - N/A   Unknown
5:00 AM 42.6 °F 30.9 °F 63% 29.99 in - North - - N/A   Unknown
6:00 AM 43.3 °F 30.9 °F 62% 29.99 in - North - - N/A   Unknown
7:00 AM 44.1 °F 31.1 °F 60% 29.99 in - North - - N/A   Unknown
8:00 AM 43 °F 31 °F 53% 30.00 in - Calm Calm - -  
8:00 AM 43.0 °F 31.5 °F 64% 30.00 in - North - - N/A   Unknown
9:00 AM 43.0 °F 31.8 °F 65% 30.00 in - North - - N/A   Unknown
10:00 AM 42.8 °F 31.6 °F 65% 30.00 in - North - - N/A   Unknown
11:00 AM 43.5 °F 31.3 °F 62% 29.98 in - North - - N/A   Unknown
12:00 PM 44.6 °F 33.1 °F 64% 29.96 in - North - - N/A   Unknown
1:00 PM 44.2 °F 33.6 °F 66% 29.96 in - North - - N/A   Unknown
2:00 PM 45 °F 34 °F 55% 29.96 in - Calm Calm - -  
2:00 PM 45.1 °F 34.0 °F 65% 29.96 in - North - - N/A   Unknown
3:00 PM 50.2 °F 36.3 °F 59% 29.93 in - North - - N/A   Unknown
4:00 PM 49.1 °F 36.1 °F 61% 29.93 in - North - - N/A   Unknown
5:00 PM 52.9 °F 37.6 °F 56% 29.91 in - North - - N/A   Unknown
6:00 PM 53.2 °F 36.7 °F 53% 29.88 in - North - - N/A   Unknown
7:00 PM 54.9 °F 34.0 °F 45% 29.89 in - North - - N/A   Unknown
8:00 PM 62 °F 33 °F 22% 29.87 in - Calm Calm - -  
8:00 PM 62.4 °F 33.1 °F 33% 29.87 in - North - - N/A   Unknown
9:00 PM 52.7 °F 33.6 °F 48% 29.86 in - North - - N/A   Unknown
10:00 PM 61.0 °F 33.8 °F 36% 29.85 in - North - - N/A   Unknown
11:00 PM 57.7 °F 33.3 °F 40% 29.83 in - North - - N/A   Unknown
12:00 AM 53.2 °F 31.3 °F 43% 29.81 in - North - - N/A   Unknown